Weather in Pulawy

Poland     51°25′02″N   21°58′20″E
temp.,
°C
wind,
m/s
gust,
m/s
humid.,
%
clouds,
%
prec.,
mm/h
press.,
hPa
HPBL,
m
7 july, thu
thu723:00+16wnw256662 0.0 1018138
02:00+12w237831 0.0 101852
05:00+13wsw3676100 0.0 1018193
08:00+16wnw346354 0.0 1018572
11:00+19wnw3452100 0.2 10181680
14:00+19w2448100 0.3 10171695
17:00+20nne2244100 0.0 10171198
20:00+17e356795 0.0 1017101
8 july, fri
fri823:00+15se2366100 0.0 101859
02:00+15sse2262100 0.0 101854
05:00+15sse2261100 0.0 101932
08:00+16ssw236691 0.0 1020183
11:00+21wsw335257 0.0 10201150
14:00+22wnw34515 0.0 10191205
17:00+21w566840 1.1 10191091
20:00+17w3889100 3.4 1019259
9 july, sat
sat923:00+15wsw4896100 0.3 1018263
02:00+15wnw489899 1.4 1019468
05:00+13wnw4109724 0.0 1019403
08:00+16wnw478171 0.0 1019573
11:00+19wnw566370 0.4 10181383
14:00+20wnw5754100 0.5 10171706
17:00+21wnw5847100 0.0 10162061
20:00+17wnw4959100 0.0 1016418
10 july, sun
sun1023:00+14w3867100 0.0 1015187
02:00+12wsw3671100 0.0 1015121
05:00+12nw2378100 0.0 101464
08:00+16wnw586111 0.1 1014772
11:00+18wnw685091 0.1 10142002
14:00+18wnw785689 0.7 10141711
17:00+17nw685499 0.3 10141438
20:00+16w496631 0.3 1014534
11 july, mon
mon1123:00+13w4109044 0.4 1014353
02:00+13w499288 0.5 1014375
05:00+11w511915 0.0 1014372
08:00+15wnw6117487 0.0 1014731
11:00+19wnw7114532 0.0 10132097
14:00+20nw61046100 0.0 10131985
17:00+19wnw584875 0.0 10141163
20:00+17wnw496878 0.0 1014452